SCP
4 4 4 3 3 3 3 3 2 2 2 1 1 1 1 1 1 1 1 1 1 1 1 1 1 1 2 2 2 1 1 1 1 1 1 1 1 1 1 1 1 1 1
4 4 4 4 4 3 3 2 2 2 2 2 1 1 1 1 1 1 1 1 1 1 1 1 1 1 2 2 1 1 1 1 1 1 1 1 1 2 2 2 2 2 2
3 4 5 5 5 4 3 3 2 2 2 2 2 1 1 1 1 1 2 2 2 2 2 2 2 2 2 2 2 1 1 1 1 1 1 1 2 2 2 2 2 2 2
3 4 4 5 5 4 4 3 3 3 2 2 2 2 1 1 2 2 3 3 2 2 2 2 3 3 3 3 3 2 2 2 1 1 1 2 2 3 3 3 3 2 2
4 4 4 4 4 4 4 4 4 3 3 3 3 3 3 2 2 3 3 2 2 1 2 2 3 4 4 4 4 3 3 2 2 2 2 2 2 3 3 3 3 3 2
4 4 4 4 4 4 4 5 5 4 3 3 4 4 4 4 3 3 2 1 1 1 2 3 4 5 4 4 4 4 3 3 2 2 2 2 2 3 3 3 3 3 3
4 4 4 4 4 4 4 5 5 4 3 3 4 5 6 5 4 3 2 1 1 1 2 3 5 5 5 5 4 4 4 3 2 2 2 2 2 3 3 4 4 4 4
5 5 4 4 3 3 4 4 4 4 4 3 3 4 5 5 5 3 2 2 1 2 2 3 4 5 5 5 5 5 4 4 2 2 2 2 2 3 3 3 3 3 4
5 5 4 4 3 3 4 4 4 4 4 3 3 3 4 4 4 3 2 2 2 2 2 3 3 4 4 4 5 5 4 3 2 2 2 2 2 2 2 2 2 3 3
6 5 5 5 4 4 4 4 4 4 3 3 3 3 3 3 3 3 2 3 3 2 2 2 2 3 3 3 3 3 3 3 2 2 2 1 1 1 1 2 2 3 3
7 7 7 6 5 4 4 5 5 4 4 3 3 3 3 3 3 2 2 3 3 3 2 2 2 2 2 1 1 2 2 2 2 1 1 1 1 1 1 2 2 3 3
9 9 8 6 5 4 4 5 5 5 4 4 4 4 4 4 4 2 2 2 2 2 2 2 1 1 1 0 0 1 1 1 1 1 1 1 1 1 1 1 2 2 3
8 8 7 6 5 5 4 4 5 5 4 4 4 4 5 5 4 3 1 1 1 1 1 1 1 1 0 0 0 0 1 1 1 1 1 1 1 1 1 1 1 2 2
7 6 6 6 6 6 5 5 4 5 5 5 4 4 4 4 4 3 2 1 1 1 1 0 0 0 0 0 0 0 0 0 0 1 1 1 1 1 1 1 1 1 1
7 7 6 6 7 7 6 6 5 5 5 4 4 4 4 3 3 3 2 2 1 0 0 0 0 1 1 1 1 1 1 1 1 1 1 1 1 1 1 1 1 1 1
6 6 6 7 7 7 7 7 6 4 3 3 3 4 4 3 2 2 2 2 1 0 0 1 1 1 2 2 2 1 1 1 1 1 1 1 1 1 1 1 1 1 1
4 4 5 5 6 7 8 7 6 5 3 2 2 2 2 2 1 1 1 1 1 1 1 1 1 1 2 2 2 2 2 2 2 2 2 2 2 2 1 1 1 1 1
2 2 3 4 5 6 7 7 7 6 5 3 2 1 1 1 0 0 0 0 0 1 1 1 1 1 1 2 2 2 2 2 2 2 2 3 3 3 1 1 1 1 1
1 1 2 3 4 5 6 7 7 7 6 5 4 2 1 0 0 0 0 0 0 0 1 1 1 1 2 2 2 2 2 2 2 2 2 3 3 3 2 1 1 1 1
1 1 1 2 3 4 5 6 7 7 6 6 5 4 2 1 0 0 0 0 1 0 0 0 1 1 1 2 2 2 2 2 2 2 2 2 2 2 1 1 1 1 1
1 1 1 1 2 3 4 5 6 6 6 6 5 4 2 1 1 0 0 0 1 1 1 0 1 1 1 1 1 1 1 1 1 2 2 2 1 1 1 1 1 1 1
1 1 1 1 1 2 3 4 5 5 5 6 5 4 2 1 1 1 0 0 1 1 1 1 0 1 1 1 1 1 1 1 1 1 1 1 1 1 1 1 0 1 1
1 1 0 0 1 1 2 3 3 3 4 5 4 3 1 1 1 1 0 0 0 1 1 1 1 0 0 0 1 1 1 1 1 1 1 1 1 1 1 1 1 1 1
1 1 1 0 0 0 1 1 1 2 2 2 2 2 1 0 0 0 0 0 0 0 1 1 1 0 0 0 0 1 1 1 1 1 1 1 1 1 1 1 1 0 1
2 1 1 1 0 0 0 0 1 1 1 1 1 1 0 0 0 0 0 0 0 0 0 1 1 0 0 0 0 0 0 1 1 1 1 1 1 1 1 1 1 0 0
2 1 1 1 0 0 0 0 0 0 0 0 0 0 0 0 0 0 0 0 0 0 0 0 1 0 0 0 0 0 0 0 0 1 1 1 1 1 1 1 1 0 0
Wind_Speed
5 4 3 3 3 3 2 2 2 1 1 1 1 1 1 1 1 1 1 1 0 1 1 1 1 1 1 1 0 1 1 2 2 3 2 2 2 2 1 1 2 2 2
4 3 3 3 3 3 3 2 2 2 2 1 1 1 1 1 1 1 2 1 1 1 2 1 2 1 1 1 1 1 1 2 2 3 2 1 2 2 2 2 2 2 2
4 3 3 3 3 3 3 2 2 2 1 1 1 1 1 1 1 2 2 2 2 2 2 1 2 1 1 1 1 2 2 2 1 2 2 2 2 2 1 2 2 2 2
4 5 4 4 4 3 3 2 2 2 2 2 2 2 2 2 2 2 2 1 1 2 2 2 2 2 2 2 2 2 2 1 1 1 2 2 2 2 0 1 2 2 2
4 4 4 4 3 2 2 2 2 2 3 2 2 2 2 2 2 2 2 2 2 2 2 2 2 2 2 2 2 2 1 1 1 1 1 1 1 1 1 1 2 2 2
4 4 3 3 2 2 2 2 2 2 2 2 2 2 2 2 3 3 2 2 3 3 3 3 3 3 3 3 3 3 3 3 2 2 2 2 3 2 2 2 1 1 2
4 3 3 3 3 3 3 2 2 2 2 2 2 2 3 4 4 4 4 3 3 3 3 3 3 2 2 2 2 3 3 4 5 4 4 4 4 3 2 2 2 2 3
3 3 3 3 3 2 2 2 2 2 2 2 2 3 3 3 3 3 4 3 2 3 3 3 3 3 3 2 2 2 3 4 5 4 4 5 5 4 4 4 4 2 2
3 3 3 4 3 2 3 3 3 2 2 2 2 2 3 3 3 3 3 2 2 3 3 3 3 4 5 4 2 3 4 4 4 4 4 5 5 5 3 1 1 1 2
4 4 3 3 3 4 4 3 2 2 2 2 2 2 3 3 3 3 3 2 2 2 3 3 4 4 5 4 3 3 4 5 4 3 3 3 3 3 4 3 3 2 2
3 3 2 3 3 3 2 2 2 2 1 1 2 2 2 3 3 3 3 2 3 2 2 3 3 5 5 5 4 4 6 5 3 2 2 2 2 2 3 3 3 3 3
2 2 2 2 2 1 1 1 1 2 2 2 2 2 2 3 3 3 3 3 3 2 3 3 3 5 5 5 4 4 5 3 1 1 2 2 3 3 3 3 4 4 4
2 2 1 1 1 1 1 1 1 1 1 2 2 2 3 2 2 3 3 3 3 2 3 4 4 4 4 4 5 5 3 2 1 2 3 4 3 3 3 2 2 2 2
1 1 1 1 0 1 0 1 1 2 2 2 2 2 2 2 2 2 2 2 2 2 2 3 4 4 3 3 4 3 2 2 2 3 3 3 2 2 2 2 2 2 1
1 1 1 1 1 1 1 1 2 2 3 3 3 2 2 2 4 3 2 2 2 2 1 1 1 1 2 2 2 2 2 2 2 2 2 2 2 2 2 2 2 1 2
1 0 1 1 1 1 1 2 3 2 3 3 3 3 3 4 3 3 3 2 2 1 1 1 2 2 2 3 3 3 3 3 3 3 2 2 2 2 3 2 1 2 3
1 1 0 1 1 2 1 2 2 3 2 2 2 2 2 2 2 2 2 1 1 1 1 2 3 3 3 3 3 3 3 3 2 2 2 2 2 2 2 2 2 2 2
1 1 1 1 1 2 2 2 2 2 2 2 2 2 2 2 2 2 1 1 1 1 2 2 3 3 3 3 3 3 3 2 2 2 2 2 2 2 2 2 2 3 3
1 1 1 1 1 2 2 1 1 2 2 2 2 2 2 2 1 1 2 1 2 2 2 3 3 3 3 2 2 2 2 2 2 2 2 2 2 2 3 3 2 3 3
1 2 2 1 1 1 1 1 1 1 2 1 1 1 0 1 1 1 1 2 2 3 3 3 3 3 2 2 1 1 2 2 2 2 2 3 3 2 3 3 2 2 2
1 2 2 1 1 2 1 2 2 1 1 1 2 2 3 2 2 2 2 3 3 3 3 3 2 2 2 1 1 1 1 2 2 2 2 3 2 2 2 2 2 2 2
1 1 1 2 2 2 2 2 1 1 2 2 2 1 3 2 2 2 2 3 3 3 2 2 1 1 1 1 1 1 2 2 2 3 3 3 2 2 2 2 2 2 2
1 1 1 1 1 2 2 1 1 1 1 2 1 1 1 2 2 2 3 3 2 2 1 1 1 1 1 1 1 1 2 3 4 3 3 3 2 2 2 3 3 3 3
1 1 1 1 1 1 1 2 1 1 1 1 1 1 2 2 2 2 2 2 1 1 1 1 1 2 1 1 1 1 2 3 3 3 3 3 3 3 2 2 3 3 3
1 1 1 2 2 2 1 1 1 1 1 1 1 1 1 2 2 2 2 1 1 1 2 1 1 2 2 2 2 2 3 3 2 2 2 2 3 3 3 3 3 3 3
1 2 2 2 2 2 2 1 1 1 1 2 2 1 1 1 1 1 1 1 1 2 2 2 2 1 2 2 2 2 2 2 3 2 2 2 2 2 3 2 3 2 2
Wind_Direction
184 188 183 192 190 177 179 190 185 181 185 190 186 173 169 197 195 170 206 192 199 290 305 288 287 275 280 284 261 232 210 184 224 269 258 271 267 275 285 270 260 256 253
182 181 188 189 182 183 194 198 192 190 184 181 166 174 202 213 209 196 219 221 217 249 269 279 291 309 303 273 259 258 246 218 200 255 279 285 266 262 256 260 262 250 244
166 178 198 195 191 198 206 206 198 186 189 185 165 175 207 224 222 220 214 218 215 228 240 240 269 299 297 280 267 266 262 266 222 224 264 267 276 283 292 283 276 279 264
166 179 192 202 202 205 203 199 189 184 190 201 206 211 213 222 223 215 206 214 229 241 232 225 238 228 239 254 264 260 254 262 262 250 267 277 276 290 286 279 296 287 279
171 179 197 204 195 185 175 176 177 192 209 215 215 226 229 226 227 217 222 220 227 246 249 244 241 231 238 245 258 247 232 230 243 252 266 280 283 297 269 252 264 284 280
173 185 192 188 182 182 182 176 173 201 222 224 221 222 233 248 254 227 210 229 229 231 242 254 256 263 275 282 279 260 228 219 226 226 242 240 253 249 251 252 247 273 289
178 188 187 175 176 189 188 180 195 208 216 237 243 230 238 257 255 234 219 220 232 236 235 243 259 271 265 271 290 298 283 261 227 213 221 235 237 233 230 257 242 225 238
185 190 189 184 191 197 191 199 212 212 216 229 242 235 239 261 256 241 227 224 238 247 240 229 230 250 259 252 260 281 279 274 258 234 221 235 237 232 216 221 228 241 264
192 193 190 187 192 202 215 221 213 203 219 234 243 239 239 267 267 240 215 218 240 258 257 245 229 238 260 255 241 263 284 286 280 259 246 243 243 242 224 185 229 214 272
202 199 192 189 197 212 222 221 207 197 212 225 252 248 238 253 262 248 215 212 236 258 268 263 248 249 261 253 229 237 261 273 286 299 293 286 270 256 241 210 203 208 234
199 187 194 203 210 219 219 207 194 193 208 238 259 267 255 249 253 242 224 207 222 235 251 261 263 265 264 260 243 235 247 260 269 269 274 279 276 263 256 245 220 201 209
178 180 199 208 223 224 199 207 204 204 222 249 260 277 276 266 257 253 240 222 222 218 245 257 262 270 270 268 255 262 264 266 271 275 279 276 265 258 256 251 244 232 224
162 175 189 187 215 199 180 211 237 239 240 258 253 264 279 285 284 281 264 252 250 237 256 271 282 282 284 277 273 275 270 251 247 255 258 259 257 258 259 263 274 267 274
131 153 170 186 260 319 251 223 229 240 243 254 248 255 271 288 292 293 286 283 283 274 286 296 294 282 275 276 288 286 262 236 229 242 254 265 279 281 264 244 246 256 274
111 164 194 200 217 249 272 262 242 236 223 224 232 226 235 263 260 241 237 262 259 252 289 324 323 317 301 294 288 282 271 267 258 259 256 270 281 280 273 266 250 246 241
143 223 234 227 245 248 260 323 325 282 279 253 234 222 236 240 244 235 236 252 267 219 124 261 273 268 264 268 269 274 271 262 258 254 249 254 262 267 278 282 261 236 247
181 213 239 246 250 247 235 221 281 317 319 282 256 250 245 244 226 233 220 240 281 151 188 255 260 262 261 262 260 254 261 263 263 261 260 261 262 266 272 274 268 263 259
208 217 211 232 245 240 228 224 220 230 271 299 289 258 243 240 239 217 173 98 329 232 239 254 262 264 261 256 252 251 258 266 268 268 265 263 261 262 272 278 264 258 261
228 245 237 231 239 235 229 223 234 239 239 261 305 311 269 241 248 225 159 202 238 255 255 256 259 261 261 260 261 257 254 255 259 254 259 263 262 258 262 266 265 270 260
226 252 241 234 248 255 249 235 233 240 242 235 245 274 343 78 47 285 215 237 249 259 258 258 264 263 259 258 263 264 265 268 274 267 272 271 262 250 252 256 259 263 256
229 244 257 256 247 248 245 242 231 221 222 221 239 240 183 177 211 233 235 236 239 247 250 250 256 261 258 254 254 260 262 272 274 273 275 276 274 264 260 255 254 250 255
227 234 234 235 245 248 247 242 236 224 213 214 249 265 218 201 220 240 250 252 246 241 239 236 250 261 261 251 240 241 260 269 274 279 281 279 273 267 266 264 264 260 255
235 241 246 252 262 270 269 259 241 236 237 244 246 256 245 239 243 240 246 250 245 241 237 221 226 263 292 281 256 231 241 254 256 252 261 268 269 265 257 258 259 260 256
246 238 236 246 241 247 259 259 244 226 220 237 252 244 248 249 250 256 255 247 238 237 228 217 225 244 257 261 264 253 259 270 269 254 245 251 259 265 263 260 261 259 258
237 225 226 229 232 241 259 256 234 224 230 249 257 248 249 252 251 256 266 258 239 238 244 238 247 257 258 255 270 274 281 282 280 279 259 248 256 260 258 255 257 265 268
248 234 227 232 229 225 227 238 240 237 246 253 251 241 229 240 250 252 259 270 265 255 246 245 244 245 279 271 280 288 290 295 292 288 270 257 257 262 266 258 254 257 264